N5GMJ Weather Reports


time (UTC)temp
C
wind
direction
speed
KPH
gust
KPH
rain 1hr
cm
rain 24hr
cm
rain mn
cm
humidity
%
barometer
mb
20260906224638 36 153 4.8 14.5 0.00 0.00 0.00 38 1012.2
20260906224135 36 126 14.5 14.5 0.00 0.00 0.00 38 1012.2
20260906223631 36 191 8.0 17.7 0.00 0.00 0.00 38 1012.3
20260906223130 37 127 4.8 14.5 0.00 0.00 0.00 37 1012.3
20260906222629 37 113 12.9 16.1 0.00 0.00 0.00 37 1012.2
20260906222128 37 106 8.0 17.7 0.00 0.00 0.00 38 1012.4
20260906221627 37 138 9.7 12.9 0.00 0.00 0.00 38 1012.3
20260906221121 37 115 8.0 12.9 0.00 0.00 0.00 37 1012.4
20260906220616 37 153 4.8 11.3 0.00 0.00 0.00 38 1012.4
20260906220112 37 137 6.4 12.9 0.00 0.00 0.00 36 1012.4
20260906215611 37 100 9.7 14.5 0.00 0.00 0.00 37 1012.5
20260906215109 36 94 8.0 11.3 0.00 0.00 0.00 37 1012.5
20260906214608 36 181 3.2 17.7 0.00 0.00 0.00 39 1012.5
20260906214103 37 101 4.8 11.3 0.00 0.00 0.00 37 1012.7
20260906213602 37 158 11.3 16.1 0.00 0.00 0.00 38 1012.7
20260906213056 37 88 14.5 20.9 0.00 0.00 0.00 37 1012.8
20260906212543 37 117 6.4 14.5 0.00 0.00 0.00 37 1012.7
20260906212040 36 131 9.7 14.5 0.00 0.00 0.00 39 1012.8
20260906211539 37 177 8.0 11.3 0.00 0.00 0.00 38 1012.8
20260906211034 37 145 6.4 12.9 0.00 0.00 0.00 38 1013.1
20260906210530 37 132 3.2 14.5 0.00 0.00 0.00 37 1013.3
20260906210030 37 127 11.3 12.9 0.00 0.00 0.00 39 1013.3
20260906205525 37 133 9.7 22.5 0.00 0.00 0.00 40 1013.2
20260906205021 36 84 6.4 12.9 0.00 0.00 0.00 39 1013.5
20260906204520 38 128 12.9 16.1 0.00 0.00 0.00 38 1013.2
20260906204015 37 88 6.4 12.9 0.00 0.00 0.00 38 1013.3
20260906203510 37 90 3.2 17.7 0.00 0.00 0.00 39 1013.5
20260906203010 37 311 1.6 6.4 0.00 0.00 0.00 38 1013.6
20260906202506 36 72 9.7 16.1 0.00 0.00 0.00 40 1013.6
20260906202001 38 160 14.5 20.9 0.00 0.00 0.00 38 1013.6
20260906201456 37 62 3.2 11.3 0.00 0.00 0.00 38 1013.6
20260906200956 37 130 16.1 17.7 0.00 0.00 0.00 40 1013.5
20260906200452 37 144 6.4 14.5 0.00 0.00 0.00 40 1013.7
20260906195952 36 113 6.4 11.3 0.00 0.00 0.00 40 1013.8
20260906195448 37 94 0.0 4.8 0.00 0.00 0.00 40 1013.9
20260906194944 36 156 8.0 14.5 0.00 0.00 0.00 41 1013.8
20260906194440 37 122 11.3 14.5 0.00 0.00 0.00 38 1013.8
20260906193935 36 136 9.7 20.9 0.00 0.00 0.00 41 1013.8
20260906193430 36 98 3.2 12.9 0.00 0.00 0.00 41 1013.9
20260906192926 36 75 6.4 12.9 0.00 0.00 0.00 41 1013.8
20260906192426 36 128 12.9 16.1 0.00 0.00 0.00 41 1014.1
20260906191925 36 75 12.9 17.7 0.00 0.00 0.00 41 1014.2
20260906191420 36 130 6.4 14.5 0.00 0.00 0.00 42 1014.3
20260906190919 36 93 0.0 6.4 0.00 0.00 0.00 42 1014.2
20260906190418 36 85 12.9 17.7 0.00 0.00 0.00 42 1014.3
20260906185919 36 152 11.3 22.5 0.00 0.00 0.00 42 1014.3
20260906185418 36 135 8.0 11.3 0.00 0.00 0.00 41 1014.4
20260906184917 36 129 4.8 16.1 0.00 0.00 0.00 43 1014.4
20260906184412 36 109 4.8 29.0 0.00 0.00 0.00 42 1014.7
20260906183908 35 145 17.7 24.1 0.00 0.00 0.00 43 1014.4
20260906183404 35 146 8.0 12.9 0.00 0.00 0.00 42 1014.7
20260906182859 36 143 9.7 20.9 0.00 0.00 0.00 42 1014.6
20260906182354 36 94 6.4 20.9 0.00 0.00 0.00 40 1014.7
20260906181849 35 119 6.4 11.3 0.00 0.00 0.00 43 1014.9
20260906181346 36 126 3.2 14.5 0.00 0.00 0.00 42 1014.9
20260906180841 36 100 4.8 12.9 0.00 0.00 0.00 42 1015.0
20260906180336 35 154 6.4 17.7 0.00 0.00 0.00 43 1015.0
20260906175833 35 124 8.0 12.9 0.00 0.00 0.00 42 1015.1
20260906175329 35 110 3.2 14.5 0.00 0.00 0.00 44 1015.3
20260906174828 35 129 17.7 20.9 0.00 0.00 0.00 44 1015.4
20260906174327 35 121 11.3 17.7 0.00 0.00 0.00 43 1015.6
20260906173822 35 165 8.0 20.9 0.00 0.00 0.00 45 1015.6
20260906173318 35 80 9.7 20.9 0.00 0.00 0.00 44 1015.7
20260906172817 35 151 12.9 16.1 0.00 0.00 0.00 44 1015.8
20260906172314 34 159 6.4 16.1 0.00 0.00 0.00 46 1015.9
20260906171814 35 93 6.4 12.9 0.00 0.00 0.00 44 1015.9
20260906171308 35 118 3.2 9.7 0.00 0.00 0.00 46 1016.0
20260906170804 34 175 4.8 12.9 0.00 0.00 0.00 48 1016.1
20260906170300 33 38 1.6 14.5 0.00 0.00 0.00 49 1016.1
20260906165756 35 144 8.0 17.7 0.00 0.00 0.00 49 1016.0
20260906165256 35 124 11.3 16.1 0.00 0.00 0.00 48 1016.2
20260906164756 34 79 4.8 11.3 0.00 0.00 0.00 45 1016.2
20260906164256 35 132 6.4 14.5 0.00 0.00 0.00 45 1016.1
20260906163752 34 148 4.8 12.9 0.00 0.00 0.00 48 1016.2
20260906163248 34 146 12.9 16.1 0.00 0.00 0.00 46 1016.2
20260906162745 35 145 12.9 14.5 0.00 0.00 0.00 47 1016.2
20260906162240 34 28 1.6 9.7 0.00 0.00 0.00 47 1016.2
20260906161739 33 146 9.7 11.3 0.00 0.00 0.00 50 1016.2
20260906161239 33 159 3.2 17.7 0.00 0.00 0.00 52 1016.4
20260906160738 33 142 6.4 12.9 0.00 0.00 0.00 51 1016.1
20260906160237 32 143 8.0 11.3 0.00 0.00 0.00 55 1016.1
20260906155735 33 119 3.2 9.7 0.00 0.00 0.00 55 1016.3
20260906155230 32 92 4.8 6.4 0.00 0.00 0.00 56 1016.3
20260906154726 32 149 6.4 6.4 0.00 0.00 0.00 57 1016.3
20260906154221 32 151 9.7 11.3 0.00 0.00 0.00 56 1016.4
20260906153719 32 128 4.8 11.3 0.00 0.00 0.00 58 1016.3
20260906153214 33 129 0.0 4.8 0.00 0.00 0.00 55 1016.1
20260906152709 32 111 3.2 3.2 0.00 0.00 0.00 57 1016.1
20260906152209 32 68 4.8 11.3 0.00 0.00 0.00 59 1016.0
20260906151703 32 123 4.8 9.7 0.00 0.00 0.00 59 1016.0
20260906151159 32 116 1.6 4.8 0.00 0.00 0.00 59 1016.0
20260906150654 31 106 0.0 3.2 0.00 0.00 0.00 61 1015.9
20260906150149 31 99 3.2 4.8 0.00 0.00 0.00 62 1015.8
20260906145649 31 28 3.2 9.7 0.00 0.00 0.00 64 1015.6
20260906145149 31 73 3.2 9.7 0.00 0.00 0.00 64 1015.7
20260906144648 31 130 3.2 6.4 0.00 0.00 0.00 64 1015.7
20260906144143 31 123 0.0 1.6 0.00 0.00 0.00 64 1015.7
20260906143643 30 100 0.0 4.8 0.00 0.00 0.00 67 1015.8
20260906143140 30 143 1.6 3.2 0.00 0.00 0.00 68 1015.7
20260906142639 30 81 0.0 4.8 0.00 0.00 0.00 67 1015.8
20260906142135 29 123 1.6 3.2 0.00 0.00 0.00 69 1015.8
20260906141633 29 133 3.2 4.8 0.00 0.00 0.00 70 1016.0
20260906141129 29 130 1.6 4.8 0.00 0.00 0.00 71 1015.8
20260906140628 28 68 3.2 4.8 0.00 0.00 0.00 72 1015.8
20260906140123 28 111 6.4 6.4 0.00 0.00 0.00 74 1015.8
20260906135621 28 166 3.2 9.7 0.00 0.00 0.00 74 1015.8
20260906135116 28 123 1.6 4.8 0.00 0.00 0.00 74 1015.9
20260906134612 28 151 6.4 6.4 0.00 0.00 0.00 75 1015.8
20260906134107 27 103 1.6 3.2 0.00 0.00 0.00 75 1015.7
20260906133602 27 144 4.8 6.4 0.00 0.00 0.00 78 1015.9
20260906133057 26 136 3.2 4.8 0.00 0.00 0.00 79 1015.8
20260906132552 26 140 1.6 3.2 0.00 0.00 0.00 80 1015.8
20260906132048 26 144 1.6 3.2 0.00 0.00 0.00 81 1015.4
20260906131543 25 141 1.6 3.2 0.00 0.00 0.00 82 1015.9
20260906131038 25 135 3.2 4.8 0.00 0.00 0.00 83 1015.8
20260906130538 25 125 1.6 3.2 0.00 0.00 0.00 84 1015.9
20260906130033 24 51 0.0 1.6 0.00 0.00 0.00 86 1015.8
20260906125531 23 49 0.0 0.0 0.00 0.00 0.00 89 1015.3
20260906125031 23 49 0.0 0.0 0.00 0.00 0.00 90 1015.4
20260906124526 23 49 0.0 0.0 0.00 0.00 0.00 91 1015.4
20260906124021 23 49 1.6 1.6 0.00 0.00 0.00 91 1015.3
20260906123520 22 51 0.0 0.0 0.00 0.00 0.00 93 1015.3
20260906123016 22 51 0.0 0.0 0.00 0.00 0.00 93 1015.2
20260906122515 22 51 0.0 0.0 0.00 0.00 0.00 93 1015.2
20260906122011 22 51 0.0 0.0 0.00 0.00 0.00 93 1015.2
20260906121507 22 51 0.0 0.0 0.00 0.00 0.00 93 1015.3
20260906121004 22 51 0.0 0.0 0.00 0.00 0.00 93 1015.3
20260906120504 22 51 0.0 0.0 0.00 0.00 0.00 92 1015.1
20260906120001 22 51 0.0 0.0 0.00 0.00 0.00 92 1015.1
20260906115456 22 51 0.0 1.6 0.00 0.00 0.00 91 1014.9
20260906114956 22 9 0.0 0.0 0.00 0.00 0.00 91 1014.8
20260906114450 22 9 0.0 0.0 0.00 0.00 0.00 91 1014.8
20260906113947 22 9 0.0 0.0 0.00 0.00 0.00 91 1014.9
20260906113445 22 9 0.0 0.0 0.00 0.00 0.00 90 1014.8
20260906112941 22 9 0.0 1.6 0.00 0.00 0.00 90 1014.7
20260906112436 23 9 0.0 0.0 0.00 0.00 0.00 90 1014.7
20260906111932 23 9 0.0 0.0 0.00 0.00 0.00 90 1014.6
20260906111431 23 9 0.0 0.0 0.00 0.00 0.00 90 1014.7
20260906110926 23 96 0.0 0.0 0.00 0.00 0.00 90 1014.8
20260906110421 23 98 0.0 0.0 0.00 0.00 0.00 90 1014.6
20260906105920 23 98 0.0 0.0 0.00 0.00 0.00 90 1014.5
20260906105416 23 98 0.0 0.0 0.00 0.00 0.00 89 1014.3
20260906104912 23 98 0.0 0.0 0.00 0.00 0.00 89 1014.4
20260906104410 23 98 0.0 1.6 0.00 0.00 0.00 88 1014.4
20260906103909 23 98 1.6 3.2 0.00 0.00 0.00 87 1014.3
20260906103408 24 339 1.6 1.6 0.00 0.00 0.00 86 1014.3
20260906102904 24 337 0.0 0.0 0.00 0.00 0.00 87 1014.3
20260906102403 23 337 0.0 0.0 0.00 0.00 0.00 87 1014.4
20260906101858 23 336 0.0 0.0 0.00 0.00 0.00 89 1014.4
20260906101353 23 336 0.0 0.0 0.00 0.00 0.00 88 1014.2
20260906100848 23 336 0.0 0.0 0.00 0.00 0.00 88 1014.2
20260906100348 23 336 0.0 0.0 0.00 0.00 0.00 87 1014.2
20260906095843 23 336 0.0 0.0 0.00 0.00 0.00 86 1014.2
20260906095338 24 349 1.6 1.6 0.00 0.00 0.00 86 1014.1
20260906094838 24 114 0.0 0.0 0.00 0.00 0.00 86 1014.3
20260906094333 24 114 0.0 0.0 0.00 0.00 0.00 86 1014.0
20260906093829 24 114 0.0 0.0 0.00 0.00 0.00 85 1014.3
20260906093325 24 114 0.0 0.0 0.00 0.00 0.00 85 1013.9
20260906092820 24 114 0.0 0.0 0.00 0.00 0.00 84 1013.9
20260906092320 24 114 0.0 1.6 0.00 0.00 0.00 84 1013.6
20260906091815 24 114 1.6 1.6 0.00 0.00 0.00 85 1013.8
20260906091311 25 116 3.2 4.8 0.00 0.00 0.00 83 1013.7
20260906090808 24 121 1.6 3.2 0.00 0.00 0.00 85 1013.7
20260906090306 24 296 0.0 0.0 0.00 0.00 0.00 85 1013.5
20260906085807 24 296 0.0 0.0 0.00 0.00 0.00 85 1013.6
20260906085307 24 296 0.0 0.0 0.00 0.00 0.00 84 1013.6
20260906084801 25 296 1.6 3.2 0.00 0.00 0.00 83 1013.7
20260906084300 25 110 0.0 0.0 0.00 0.00 0.00 82 1013.9
20260906083755 25 110 0.0 1.6 0.00 0.00 0.00 82 1013.8
20260906083251 25 110 0.0 0.0 0.00 0.00 0.00 82 1013.6
20260906082745 25 110 0.0 0.0 0.00 0.00 0.00 81 1013.5
20260906082240 25 114 1.6 1.6 0.00 0.00 0.00 81 1013.6
20260906081736 25 126 1.6 3.2 0.00 0.00 0.00 81 1013.4
20260906081231 25 135 3.2 3.2 0.00 0.00 0.00 81 1013.4
20260906080728 25 136 1.6 3.2 0.00 0.00 0.00 80 1013.8
20260906080224 25 139 1.6 3.2 0.00 0.00 0.00 80 1013.6
20260906075724 25 141 1.6 1.6 0.00 0.00 0.00 80 1013.9
20260906075224 26 141 1.6 3.2 0.00 0.00 0.00 79 1013.7
20260906074719 26 128 1.6 4.8 0.00 0.00 0.00 79 1014.1
20260906074218 26 137 1.6 3.2 0.00 0.00 0.00 78 1014.1
20260906073713 26 130 3.2 4.8 0.00 0.00 0.00 78 1014.0
20260906073208 26 137 3.2 3.2 0.00 0.00 0.00 79 1014.2
20260906072704 25 118 0.0 0.0 0.00 0.00 0.00 81 1014.1
20260906072159 25 118 0.0 0.0 0.00 0.00 0.00 80 1014.1
20260906071655 25 118 0.0 0.0 0.00 0.00 0.00 79 1014.0
20260906071154 26 118 0.0 0.0 0.00 0.00 0.00 78 1013.8
20260906070652 26 119 0.0 0.0 0.00 0.00 0.00 77 1013.6
20260906070147 26 119 0.0 0.0 0.00 0.00 0.00 76 1013.8
20260906065646 26 115 0.0 1.6 0.00 0.00 0.00 76 1013.8
20260906065142 26 110 1.6 3.2 0.00 0.00 0.00 76 1014.0
20260906064637 26 142 0.0 1.6 0.00 0.00 0.00 77 1014.2
20260906064132 26 142 0.0 0.0 0.00 0.00 0.00 77 1014.2
20260906063628 26 142 0.0 0.0 0.00 0.00 0.00 76 1014.3
20260906063124 26 143 0.0 0.0 0.00 0.00 0.00 76 1014.1
20260906062619 26 143 0.0 1.6 0.00 0.00 0.00 76 1014.3
20260906062118 27 142 0.0 0.0 0.00 0.00 0.00 75 1014.1
20260906061614 27 142 0.0 0.0 0.00 0.00 0.00 75 1014.1
20260906061114 27 143 0.0 0.0 0.00 0.00 0.00 74 1014.4
20260906060611 27 143 0.0 1.6 0.00 0.00 0.00 74 1014.3
20260906060108 27 143 0.0 1.6 0.00 0.00 0.00 73 1014.3
20260906055603 27 143 0.0 1.6 0.00 0.00 0.00 72 1014.4
20260906055058 27 124 1.6 3.2 0.00 0.00 0.00 72 1014.5
20260906054558 27 149 0.0 3.2 0.00 0.00 0.00 72 1014.4
20260906054053 27 144 0.0 1.6 0.00 0.00 0.00 72 1014.3
20260906053550 27 145 0.0 1.6 0.00 0.00 0.00 72 1014.3
20260906053045 27 110 0.0 3.2 0.00 0.00 0.00 71 1014.4
20260906052540 28 120 3.2 3.2 0.00 0.00 0.00 70 1014.2
20260906052038 28 141 3.2 3.2 0.00 0.00 0.00 70 1014.3
20260906051533 28 150 1.6 1.6 0.00 0.00 0.00 69 1014.4
20260906051028 28 133 0.0 4.8 0.00 0.00 0.00 69 1014.2
20260906050523 28 117 1.6 3.2 0.00 0.00 0.00 69 1014.4
20260906050018 28 140 0.0 0.0 0.00 0.00 0.00 69 1014.5
20260906045516 28 141 0.0 1.6 0.00 0.00 0.00 69 1014.2
20260906045012 28 148 1.6 1.6 0.00 0.00 0.00 69 1014.3
20260906044507 28 148 0.0 0.0 0.00 0.00 0.00 70 1014.3
20260906044003 28 148 0.0 0.0 0.00 0.00 0.00 69 1014.4
20260906043458 28 148 0.0 0.0 0.00 0.00 0.00 69 1014.0
20260906042954 28 148 0.0 0.0 0.00 0.00 0.00 68 1014.3
20260906042453 28 148 0.0 0.0 0.00 0.00 0.00 67 1014.2
20260906041953 29 148 0.0 0.0 0.00 0.00 0.00 66 1014.1
20260906041450 29 148 0.0 3.2 0.00 0.00 0.00 65 1014.1
20260906040949 29 137 0.0 3.2 0.00 0.00 0.00 64 1014.2
20260906040444 29 126 1.6 3.2 0.00 0.00 0.00 64 1014.1
20260906035939 30 110 6.4 6.4 0.00 0.00 0.00 63 1014.0
20260906035435 30 134 4.8 6.4 0.00 0.00 0.00 63 1014.1
20260906034931 30 145 1.6 6.4 0.00 0.00 0.00 62 1014.1
20260906034431 30 138 3.2 4.8 0.00 0.00 0.00 62 1014.0
20260906033926 30 146 3.2 6.4 0.00 0.00 0.00 61 1014.1
20260906033427 30 132 1.6 6.4 0.00 0.00 0.00 61 1014.0
20260906032922 30 158 4.8 6.4 0.00 0.00 0.00 60 1014.0
20260906032419 30 132 3.2 4.8 0.00 0.00 0.00 60 1014.2
20260906031912 30 153 3.2 4.8 0.00 0.00 0.00 59 1013.9
20260906031409 31 147 8.0 9.7 0.00 0.00 0.00 58 1013.9
20260906030909 31 115 6.4 11.3 0.00 0.00 0.00 58 1013.8
20260906030404 31 152 6.4 6.4 0.00 0.00 0.00 57 1014.1
20260906025859 31 139 3.2 6.4 0.00 0.00 0.00 57 1014.0
20260906025359 31 161 6.4 9.7 0.00 0.00 0.00 56 1013.9
20260906024857 31 131 14.5 17.7 0.00 0.00 0.00 55 1013.8
20260906024357 31 144 6.4 14.5 0.00 0.00 0.00 55 1013.8
20260906023852 31 151 4.8 9.7 0.00 0.00 0.00 54 1013.6
20260906023349 31 130 6.4 14.5 0.00 0.00 0.00 54 1013.6
20260906022848 31 149 6.4 14.5 0.00 0.00 0.00 53 1013.6
20260906022344 31 162 6.4 9.7 0.00 0.00 0.00 54 1013.6
20260906021839 31 118 9.7 14.5 0.00 0.00 0.00 54 1013.6
20260906021338 30 133 1.6 3.2 0.00 0.00 0.00 54 1013.4
20260906020834 30 98 0.0 0.0 0.00 0.00 0.00 55 1013.1
20260906020333 31 98 0.0 0.0 0.00 0.00 0.00 53 1013.0
20260906015828 31 98 0.0 0.0 0.00 0.00 0.00 53 1012.9
20260906015326 31 98 0.0 0.0 0.00 0.00 0.00 52 1012.9
20260906014826 31 98 0.0 0.0 0.00 0.00 0.00 52 1012.8
20260906014322 31 98 0.0 0.0 0.00 0.00 0.00 51 1012.7
20260906013818 31 103 0.0 0.0 0.00 0.00 0.00 51 1012.9
20260906013313 31 103 0.0 0.0 0.00 0.00 0.00 51 1012.7
20260906012808 32 98 0.0 0.0 0.00 0.00 0.00 49 1012.8
20260906012306 32 98 0.0 0.0 0.00 0.00 0.00 49 1012.6
20260906011758 32 98 0.0 1.6 0.00 0.00 0.00 47 1012.7
20260906011258 32 98 0.0 0.0 0.00 0.00 0.00 47 1012.5
20260906010754 33 98 0.0 0.0 0.00 0.00 0.00 46 1012.5
20260906010250 33 99 0.0 1.6 0.00 0.00 0.00 44 1012.6
20260906005745 33 129 1.6 3.2 0.00 0.00 0.00 44 1012.5
20260906005244 33 131 3.2 4.8 0.00 0.00 0.00 44 1012.5
20260906004743 33 129 1.6 3.2 0.00 0.00 0.00 44 1012.6
20260906004238 34 123 1.6 4.8 0.00 0.00 0.00 43 1012.2
20260906003733 34 122 3.2 4.8 0.00 0.00 0.00 43 1012.3
20260906003229 34 130 3.2 6.4 0.00 0.00 0.00 42 1012.4
20260906002729 35 108 6.4 9.7 0.00 0.00 0.00 41 1012.3
20260906002229 35 148 4.8 6.4 0.00 0.00 0.00 41 1012.4
20260906001724 35 144 4.8 9.7 0.00 0.00 0.00 40 1012.5
20260906001219 35 117 1.6 4.8 0.00 0.00 0.00 39 1012.2
20260906000714 35 66 4.8 6.4 0.00 0.00 0.00 39 1012.4
20260906000212 35 102 3.2 9.7 0.00 0.00 0.00 38 1012.1
20260905235709 36 147 9.7 11.3 0.00 0.00 0.00 38 1012.2
20260905235204 36 125 3.2 4.8 0.00 0.00 0.00 37 1012.1
20260905234659 36 135 3.2 6.4 0.00 0.00 0.00 37 1012.0
20260905234154 36 133 4.8 9.7 0.00 0.00 0.00 38 1012.0
20260905233649 36 105 3.2 9.7 0.00 0.00 0.00 37 1012.0
20260905233149 36 132 4.8 4.8 0.00 0.00 0.00 37 1012.2
20260905232644 36 140 6.4 12.9 0.00 0.00 0.00 37 1012.0
20260905232140 36 123 3.2 6.4 0.00 0.00 0.00 37 1012.0
20260905231635 36 108 3.2 6.4 0.00 0.00 0.00 37 1012.0
20260905231132 36 138 6.4 11.3 0.00 0.00 0.00 38 1012.0
20260905230627 36 101 6.4 12.9 0.00 0.00 0.00 37 1012.1
20260905230125 36 87 3.2 9.7 0.00 0.00 0.00 37 1012.0
20260905225624 37 114 3.2 11.3 0.00 0.00 0.00 36 1012.2
20260905225120 37 119 4.8 9.7 0.00 0.00 0.00 37 1012.1